This is the latest recevied weather packets stored in our database for station/object AA8FM-13. If no packets are shown the sender has not sent any weather packets the latest 10 day(s).
| Time | Temp. | Humidity | Pressure | Rain* | Wind** | Luminosity | Snow |
|---|---|---|---|---|---|---|---|
| 1777503487 | 16.11° C | 97% | 1005.1 hPa | 1.27 mm | - | 15 W/m² | - |
| 1777503183 | 16.11° C | 96% | 1004.7 hPa | 0 mm | - | 42 W/m² | - |
| 1777502881 | 16.11° C | 97% | 1005 hPa | 0 mm | - | 21 W/m² | - |
| 1777502578 | 16.11° C | 97% | 1004.8 hPa | 0 mm | - | 20 W/m² | - |
| 1777502275 | 16.11° C | 97% | 1004.9 hPa | 0 mm | - | 9 W/m² | - |
| 1777501972 | 16.11° C | 96% | 1004.8 hPa | 0 mm | - | 17 W/m² | - |
| 1777501669 | 16.67° C | 96% | 1004.6 hPa | 0 mm | - | 28 W/m² | - |
| 1777501366 | 16.67° C | 95% | 1004.5 hPa | 0 mm | - | 43 W/m² | - |
| 1777501064 | 16.67° C | 94% | 1004.2 hPa | 0 mm | - | 58 W/m² | - |
| 1777500761 | 16.67° C | 94% | 1004 hPa | 0 mm | - | 74 W/m² | - |
| 1777500458 | 16.67° C | 97% | 1004 hPa | 0 mm | - | 145 W/m² | - |
| 1777500154 | 16.67° C | 99% | 1004 hPa | 0 mm | - | 262 W/m² | - |
| 1777499852 | 16.67° C | 99% | 1004 hPa | 0 mm | - | 108 W/m² | - |
| 1777499547 | 16.11° C | 99% | 1004 hPa | 0 mm | - | 213 W/m² | - |
| 1777499246 | 16.11° C | 99% | 1004 hPa | 0 mm | - | 58 W/m² | - |
| 1777498942 | 16.11° C | 99% | 1004 hPa | 0 mm | - | 38 W/m² | - |
| 1777498639 | 16.11° C | 99% | 1004.4 hPa | 0 mm | - | 17 W/m² | - |
| 1777498334 | 16.11° C | 99% | 1004 hPa | 0 mm | - | 38 W/m² | - |
| 1777498033 | 16.11° C | 99% | 1003.7 hPa | 0 mm | - | 99 W/m² | - |
| 1777497730 | 15.56° C | 99% | 1003.7 hPa | 0 mm | - | 92 W/m² | - |
| 1777497426 | 15.56° C | 99% | 1003.5 hPa | 0 mm | - | 98 W/m² | - |
| 1777497122 | 15.56° C | 99% | 1003.6 hPa | 1.78 mm | - | 135 W/m² | - |
| 1777496819 | 16.11° C | 99% | 1003.8 hPa | 3.05 mm | - | 105 W/m² | - |
| 1777496516 | 15.56° C | 99% | 1003.5 hPa | 3.05 mm | - | 123 W/m² | - |
| 1777496212 | 15.56° C | 99% | 1003.4 hPa | 4.83 mm | - | 114 W/m² | - |
* Rain latest hour (hover to see other rain measurements)
** Current wind speed in m/s (hover to see current wind gust speed)